Location: All Nations United Methodist Church
(33.0215°N, 96.7483°W)
Time: 15:39:33
(UTC+00:00)

SL-16 R/B - Pass Details

Date: 24 January 2021
Orbit: 839 x 850 km, 71.0° (Epoch: 06 March)

Event Time Altitude Azimuth Distance (km) Brightness Sun altitude
Rises 12:36:52 0° 219° (SW) 3,378 5.1 -10.7°
Reaches altitude 10° 12:39:27 10° 227° (SW) 2,447 4.3 -10.2°
Maximum altitude 12:44:41 39° 295° (WNW) 1,232 2.6 -9.1°
Drops below altitude 10° 12:49:58 10° 4° (N) 2,465 4.5 -8.1°
Sets 12:52:35 0° 12° (NNE) 3,404 5.3 -7.6°
